Frederick, MD

7:19 AM EDT on October 19, 2019 (GMT -0400)
Frederick Municipal

Weather History for KFDK - August, 2019

Change the Weather History Date:

Tuesday, August 13, 2019

  Actual Average (KHGR) Record (KHGR)
Temperature  
Mean Temperature 78 °F -  
Max Temperature 82 °F 82 °F 97 °F (2016)
Min Temperature 73 °F 63 °F 52 °F (2006)
Cooling Degree Days 12    
Growing Degree Days 28 (Base 50)    
Moisture  
Dew Point 70 °F    
Average Humidity 80    
Maximum Humidity 94    
Minimum Humidity 69    
Precipitation  
Precipitation 0.16 in - - ()
Sea Level Pressure  
Sea Level Pressure 29.85 in    
Wind  
Wind Speed 2 mph (South)    
Max Wind Speed 7 mph    
Max Gust Speed -    
Visibility 9 miles    
Events Rain , Thunderstorm    
Averages and records for this station are not official NWS values.
T = Trace of Precipitation, MM = Missing Value Source: NWS Daily Summary

Daily Weather History Graph

Daily Weather History Graph

Search for Another Location

Airport or City:

Astronomy

Aug. 13, 2019 Rise Set
Actual Time 6:20 AM EDT 8:08 PM EDT
Civil Twilight 5:51 AM EDT 8:36 PM EDT
Nautical Twilight 5:16 AM EDT 9:11 PM EDT
Astronomical Twilight 4:38 AM EDT 9:49 PM EDT
Moon 7:20 PM EDT (8/13) 4:20 AM EDT (8/13)
Length of Visible Light 14h 45m
Length of Day
13h 47m
Waxing Gibbous, 97% of the Moon is Illuminated
Aug 13
Waxing Gibbous
Aug 15
Full
Aug 23
Last Quarter
Aug 30
New
Sep 5
First Quarter

Hourly Weather History & Observations

Time (EDT) Temp. Heat Index Dew Point Humidity Pressure Visibility Wind Dir Wind Speed Gust Speed Precip Events Conditions
12:05 AM 78.8 °F - 68.0 °F 69% 29.89 in 10.0 mi SSW 3.5 mph - N/A   Clear
12:25 AM 78.8 °F - 68.0 °F 69% 29.89 in 10.0 mi Calm Calm - N/A   Clear
12:45 AM 78.8 °F - 68.0 °F 69% 29.89 in 10.0 mi Calm Calm - N/A   Clear
1:05 AM 77.0 °F - 68.0 °F 74% 29.89 in 10.0 mi Calm Calm - N/A   Clear
1:25 AM 78.8 °F - 68.0 °F 69% 29.88 in 10.0 mi South 4.6 mph - N/A   Clear
1:45 AM 78.8 °F - 68.0 °F 69% 29.87 in 10.0 mi South 3.5 mph - N/A   Clear
2:05 AM 78.8 °F - 68.0 °F 69% 29.87 in 10.0 mi SSW 4.6 mph - N/A   Clear
2:25 AM 78.8 °F - 68.0 °F 69% 29.87 in 10.0 mi South 3.5 mph - N/A   Clear
2:45 AM 78.8 °F - 68.0 °F 69% 29.87 in 10.0 mi South 3.5 mph - N/A   Clear
3:05 AM 77.0 °F - 68.0 °F 74% 29.87 in 10.0 mi Calm Calm - N/A   Clear
3:25 AM 77.0 °F - 68.0 °F 74% 29.87 in 10.0 mi Calm Calm - N/A   Clear
3:45 AM 75.2 °F - 69.8 °F 83% 29.87 in 10.0 mi Calm Calm - N/A   Light Drizzle
4:05 AM 75.2 °F - 69.8 °F 83% 29.86 in 10.0 mi Calm Calm - N/A   Clear
4:25 AM 73.4 °F - 68.0 °F 83% 29.86 in 10.0 mi Calm Calm - N/A   Clear
4:45 AM 75.2 °F - 68.0 °F 78% 29.85 in 10.0 mi Calm Calm - N/A   Clear
5:05 AM 77.0 °F - 68.0 °F 74% 29.85 in 10.0 mi Calm Calm - N/A   Scattered Clouds
5:25 AM 75.2 °F - 68.0 °F 78% 29.85 in 10.0 mi Calm Calm - N/A   Mostly Cloudy
5:45 AM 75.2 °F - 68.0 °F 78% 29.84 in 10.0 mi East 3.5 mph - N/A   Overcast
6:05 AM 75.2 °F - 68.0 °F 78% 29.86 in 10.0 mi Calm Calm - N/A   Overcast
6:25 AM 75.2 °F - 68.0 °F 78% 29.86 in 10.0 mi Calm Calm - N/A   Overcast
6:45 AM 75.2 °F - 68.0 °F 78% 29.86 in 10.0 mi Calm Calm - N/A   Overcast
6:47 AM 75.2 °F - 69.8 °F 83% 29.86 in 10.0 mi Calm Calm - N/A   Overcast
7:05 AM 73.4 °F - 68.0 °F 83% 29.86 in 10.0 mi South 3.5 mph - N/A   Overcast
7:47 AM 75.2 °F - 69.8 °F 83% 29.87 in 10.0 mi SW 4.6 mph - N/A   Overcast
8:47 AM 75.2 °F - 69.8 °F 83% 29.86 in 10.0 mi Calm Calm - N/A   Overcast
9:47 AM 77.0 °F - 69.8 °F 78% 29.86 in 10.0 mi Calm Calm - N/A   Overcast
10:47 AM 77.0 °F - 69.8 °F 78% 29.86 in 10.0 mi Calm Calm - N/A   Overcast
11:30 AM 77.0 °F - 71.6 °F 83% 29.88 in 2.0 mi SW 3.5 mph - N/A Rain Rain
11:47 AM 75.2 °F - 71.6 °F 89% 29.89 in 2.0 mi SSW 4.6 mph - N/A Rain Rain
12:47 PM 75.2 °F - 73.4 °F 94% 29.86 in 3.0 mi Calm Calm - N/A Rain Light Rain
1:47 PM 78.8 °F - 73.4 °F 83% 29.84 in 5.0 mi Calm Calm - N/A Rain Light Rain
2:47 PM 80.6 °F 85.4 °F 73.4 °F 79% 29.82 in 7.0 mi Calm Calm - N/A   Mostly Cloudy
3:47 PM 80.6 °F 85.4 °F 73.4 °F 79% 29.81 in 7.0 mi Calm Calm - N/A   Mostly Cloudy
4:47 PM 80.6 °F 85.4 °F 73.4 °F 79% 29.80 in 7.0 mi Calm Calm - N/A   Mostly Cloudy
5:47 PM 80.6 °F 85.4 °F 73.4 °F 79% 29.79 in 10.0 mi East 3.5 mph - N/A   Scattered Clouds
6:47 PM 82.4 °F 87.2 °F 71.6 °F 70% 29.79 in 10.0 mi Calm Calm - N/A   Mostly Cloudy
7:47 PM 80.6 °F 85.4 °F 73.4 °F 79% 29.80 in 10.0 mi Calm Calm - N/A   Scattered Clouds
8:47 PM 78.8 °F - 73.4 °F 83% 29.80 in 10.0 mi NNE 3.5 mph - N/A   Scattered Clouds
9:25 PM 77.0 °F - 71.6 °F 83% 29.82 in 10.0 mi NNW 3.5 mph - N/A   Overcast
9:45 PM 78.8 °F - 71.6 °F 78% 29.82 in 10.0 mi NE 5.8 mph - N/A   Overcast
10:05 PM 77.0 °F - 71.6 °F 83% 29.82 in 10.0 mi South 6.9 mph - N/A Thunderstorm Thunderstorm
10:25 PM 77.0 °F - 73.4 °F 89% 29.82 in 10.0 mi Calm Calm - 0.03 in Rain Light Rain
10:45 PM 75.2 °F - 73.4 °F 94% 29.81 in 7.0 mi ENE 3.5 mph - 0.16 in Rain Light Rain
11:05 PM 75.2 °F - 73.4 °F 94% 29.81 in 10.0 mi East 3.5 mph - N/A   Overcast
11:25 PM 75.2 °F - 73.4 °F 94% 29.81 in 10.0 mi NNW 3.5 mph - N/A Thunderstorm Overcast
11:45 PM 75.2 °F - 73.4 °F 94% 29.80 in 10.0 mi Calm Calm - N/A Thunderstorm Overcast